Theta_e
324 323 323 320 316 317 318 318 318 318 318 318 318 318 318 318 318 318 317 317 317 317 317 317 317 317 316 316 317 320 321 320 319 319 321 322 322 322 318 319 320 319 319 321 328 338 339
322 323 323 322 322 318 316 317 318 318 317 317 317 317 317 317 317 317 317 318 318 317 317 317 317 317 317 316 319 320 319 319 318 320 320 322 322 322 321 321 319 320 320 320 322 338 339
315 319 321 323 322 322 322 317 316 317 317 317 316 316 316 316 316 316 317 317 317 317 317 317 317 316 316 317 316 318 318 319 318 318 319 320 322 322 321 319 319 320 319 318 318 336 338
307 309 314 319 321 322 322 322 319 317 317 317 317 316 316 315 316 316 316 316 317 317 317 317 317 316 317 317 318 317 318 318 318 317 320 320 321 322 320 319 320 319 317 318 317 330 337
300 303 307 308 312 318 322 322 322 319 318 317 318 317 316 316 316 317 317 317 317 318 320 318 317 318 317 319 320 319 319 318 316 318 319 321 321 320 320 319 317 318 318 318 319 323 336
297 298 299 302 306 308 313 318 321 321 321 318 316 318 317 316 317 317 318 319 318 319 323 323 321 320 317 316 319 320 320 319 320 320 320 321 321 317 315 314 317 318 319 319 319 322 331
297 297 298 298 299 301 306 309 314 318 321 322 321 317 318 318 317 318 318 319 320 322 324 324 325 323 320 319 321 322 320 319 319 320 317 320 318 318 318 317 319 320 320 319 317 324 335
298 297 297 297 297 298 299 302 306 310 317 321 321 322 317 318 318 317 318 319 321 323 323 324 324 323 323 323 325 325 322 321 319 318 318 318 317 318 320 320 320 319 319 319 319 323 336
299 298 297 297 297 297 298 299 300 303 308 314 319 322 321 318 317 317 318 320 320 319 324 322 321 322 322 323 323 324 322 321 319 318 319 319 319 320 319 319 319 319 319 319 319 320 331
298 298 297 297 297 297 297 298 298 299 301 308 313 318 321 317 317 318 319 320 314 326 317 320 319 319 319 319 319 321 323 321 318 318 317 316 318 319 319 319 318 319 318 320 320 322 322
298 297 297 297 297 298 298 298 298 298 299 301 307 313 319 317 320 319 319 316 325 324 321 320 321 320 319 318 320 319 319 319 319 319 317 318 318 318 318 318 318 320 320 320 323 321 321
300 299 298 297 297 298 298 298 298 299 299 299 302 308 317 319 317 317 320 323 325 321 323 323 322 320 318 319 319 319 319 319 320 318 317 316 319 318 317 318 318 320 320 321 321 320 322
298 299 298 298 298 298 298 298 298 299 299 299 299 303 309 317 319 316 320 320 326 324 321 321 321 321 320 320 318 317 319 320 319 319 320 319 319 316 319 318 318 319 318 321 322 323 324
296 297 298 298 298 298 298 298 299 299 299 299 299 300 304 311 318 318 320 319 326 324 322 319 321 322 322 322 322 322 321 321 318 317 317 319 319 318 319 318 319 317 318 322 325 324 323
296 297 297 298 297 297 298 299 299 299 300 300 300 300 301 305 314 317 320 322 323 321 321 321 320 322 322 322 322 321 321 321 319 317 320 320 320 320 319 319 319 319 319 319 323 325 329
296 296 297 297 297 297 298 298 299 299 300 301 301 301 301 300 306 315 320 321 322 320 318 320 322 322 322 321 322 321 321 321 320 320 319 320 322 321 320 321 319 319 319 322 321 324 324
296 296 297 297 297 297 298 298 299 299 300 301 301 302 303 301 303 312 319 321 319 320 319 320 321 323 324 325 322 322 322 323 321 320 320 319 320 321 322 321 321 319 320 321 321 325 324
296 296 297 297 297 297 298 299 299 300 301 302 302 304 305 304 310 311 316 319 319 319 319 317 320 322 323 324 327 326 327 323 325 323 322 320 320 321 322 325 325 319 320 322 322 324 328
296 296 297 296 297 297 298 299 299 300 300 301 302 303 303 304 307 310 313 317 319 319 320 317 319 321 322 324 326 327 328 326 325 325 322 323 325 327 327 326 324 325 322 320 324 324 327
296 297 297 297 297 298 298 300 299 300 301 302 302 304 304 305 306 309 310 317 319 317 319 318 317 319 322 323 324 326 328 326 325 325 324 325 326 324 326 324 326 330 329 327 325 321 327
297 297 297 297 297 297 298 299 299 300 300 302 302 301 303 307 306 307 308 314 318 320 318 318 317 318 319 322 324 326 328 328 326 323 323 324 326 327 327 329 329 329 328 329 329 328 327
297 297 297 297 297 297 298 298 299 300 301 302 301 301 303 305 305 305 309 311 316 317 319 319 318 318 319 320 323 327 326 327 326 321 324 323 326 326 322 329 329 330 328 326 328 329 329
294 294 295 296 297 298 298 298 299 300 300 302 301 301 301 304 306 307 311 312 317 316 318 318 318 319 320 321 322 325 325 326 324 322 324 324 325 323 327 328 329 329 326 327 327 327 327
295 295 294 295 296 297 298 298 299 300 301 301 301 301 301 304 305 307 307 315 314 318 319 318 318 319 319 322 323 323 325 326 326 325 324 325 325 321 321 325 328 325 325 325 326 325 324
293 293 294 294 294 295 297 298 298 300 300 301 301 300 299 302 304 306 310 312 314 315 318 318 318 320 321 323 324 325 325 327 328 326 325 323 323 322 323 323 324 325 324 324 323 322 321
293 292 292 292 294 294 294 297 298 299 299 300 301 301 299 299 302 304 310 313 314 316 317 317 318 320 322 322 321 323 323 326 328 326 324 323 321 320 313 323 327 324 323 320 317 319 318
292 291 291 291 292 292 294 294 296 297 298 299 301 301 300 297 300 302 304 312 313 315 317 318 320 321 321 322 324 320 323 320 326 327 326 321 317 323 312 315 319 319 318 319 319 319 317
292 292 294 293 291 291 292 294 294 296 298 299 301 302 301 299 301 302 304 313 314 317 320 319 321 319 322 324 322 319 317 317 320 322 325 324 321 318 314 318 323 318 317 319 317 317 318
292 293 292 292 292 291 291 293 294 295 298 301 301 302 302 301 301 305 306 314 316 317 318 319 320 321 320 321 320 318 318 316 317 323 320 322 318 320 322 319 319 320 317 318 318 317 316
Wind_Speed
19 18 19 19 19 18 17 16 15 14 12 10 11 11 12 14 15 16 17 17 16 15 16 17 17 17 16 10 6 5 7 12 9 7 5 8 9 9 5 8 15 2 5 12 6 18 22
25 23 20 18 20 19 19 18 18 16 15 13 12 11 12 13 14 15 16 18 18 17 16 17 17 16 14 8 0 4 9 9 9 6 4 5 6 10 7 6 1 9 13 13 5 11 13
28 27 26 23 21 19 21 20 20 19 18 16 14 13 13 13 14 16 16 16 17 16 16 15 16 17 18 18 10 11 12 15 10 9 10 6 8 8 9 9 7 14 6 6 12 19 8
21 23 28 26 24 22 21 21 21 19 19 18 18 15 14 14 15 16 17 15 15 15 16 17 16 15 15 14 13 17 12 12 16 12 9 7 9 10 6 9 7 5 2 0 6 16 14
16 18 20 20 23 24 23 23 23 22 19 20 19 17 16 14 14 15 15 14 13 13 18 18 16 5 15 5 3 6 11 15 9 12 16 9 10 6 3 0 5 3 4 5 6 17 9
13 14 17 18 22 21 23 23 22 25 25 22 20 19 18 16 15 16 17 18 20 21 15 13 14 7 15 14 1 4 6 8 9 7 10 13 5 1 3 3 5 5 6 5 5 3 4
15 14 13 14 16 20 21 20 21 22 24 26 22 21 20 18 17 17 20 24 16 7 13 10 18 18 26 18 12 13 6 10 9 7 5 7 3 7 13 9 8 5 6 9 5 3 6
17 16 15 15 14 14 17 21 21 21 22 24 24 22 21 20 20 16 16 13 18 10 15 20 26 34 34 29 23 28 15 7 8 7 3 3 7 12 9 8 6 8 8 6 5 5 5
18 18 17 17 16 15 14 15 18 22 21 23 23 21 21 22 20 17 15 18 13 18 10 20 28 27 30 34 38 32 25 14 7 5 6 10 8 11 6 10 8 7 6 3 6 4 6
20 20 19 17 16 16 15 15 15 15 20 22 22 22 20 20 18 14 12 11 11 6 5 7 7 9 14 14 12 38 34 24 7 10 6 8 12 13 16 9 6 5 7 5 6 3 5
21 20 20 19 18 16 16 16 15 15 16 19 21 19 18 19 11 6 5 6 2 3 5 6 6 3 3 15 2 7 41 27 17 8 7 9 3 7 9 9 8 9 9 6 5 4 1
19 19 19 19 19 19 18 16 16 16 16 16 19 19 17 22 24 19 10 7 7 2 9 6 4 7 7 12 6 2 8 29 21 11 9 6 15 4 6 8 8 9 3 3 3 1 4
20 20 20 19 19 18 19 19 17 17 17 17 17 20 22 18 16 17 17 14 3 6 3 6 7 5 8 7 6 7 5 4 6 5 11 13 16 8 8 7 4 4 6 2 4 3 8
21 21 21 20 19 19 19 19 19 17 17 18 19 20 26 31 22 22 10 3 15 14 15 5 5 5 9 9 6 6 5 7 6 5 2 10 12 8 9 9 10 8 9 6 7 4 5
23 21 21 21 21 20 21 19 19 18 16 18 21 24 29 35 27 29 16 10 9 11 9 8 5 4 5 7 7 9 9 14 9 11 10 6 9 4 6 7 9 6 4 9 4 2 1
24 23 22 22 21 21 21 20 18 17 15 15 18 22 37 28 29 25 14 23 9 24 4 11 15 8 9 9 8 8 9 7 14 17 16 8 11 7 8 4 10 17 6 1 2 7 11
25 25 24 23 22 22 21 20 18 17 15 13 15 9 19 22 24 21 17 16 20 31 26 6 11 5 7 7 9 6 8 5 9 10 22 10 8 6 5 7 11 3 4 2 4 5 5
25 25 25 24 22 21 20 19 18 14 12 12 11 5 9 9 12 17 18 28 40 28 24 12 5 5 7 8 5 6 7 10 2 15 8 11 6 7 17 5 6 11 17 15 5 4 3
25 25 24 24 22 21 19 18 17 16 15 15 9 21 28 21 10 19 23 30 35 23 21 12 11 8 6 6 3 7 5 5 7 6 9 6 3 2 6 4 3 1 2 5 5 4 8
24 23 23 22 20 20 18 17 16 16 16 19 11 4 15 26 37 22 27 31 26 52 29 36 7 11 3 6 5 3 6 4 7 5 7 7 4 7 9 6 3 3 3 3 6 4 5
23 22 22 21 20 20 19 18 16 17 16 21 15 6 13 6 18 25 33 23 32 26 37 39 28 20 16 5 7 8 4 1 4 5 5 5 5 5 4 6 5 5 2 1 1 3 6
23 22 21 20 20 20 20 18 17 18 18 26 9 6 11 22 33 22 33 36 36 34 25 23 23 29 20 22 18 11 8 5 6 3 6 4 4 2 2 5 8 7 6 5 1 2 3
22 22 21 21 20 19 19 18 18 20 21 17 18 27 22 17 13 12 22 33 24 35 37 44 32 13 17 28 23 17 23 20 8 9 9 8 6 4 5 3 1 6 11 8 3 1 6
21 20 19 20 19 18 19 20 18 20 20 26 28 18 7 9 11 18 24 30 28 25 28 30 40 23 38 12 23 22 21 18 9 8 9 7 8 4 4 4 6 6 8 11 11 12 9
20 19 19 18 19 19 19 19 18 19 20 25 34 28 9 7 15 21 28 26 33 38 26 26 34 45 33 18 4 1 3 5 11 8 10 6 6 3 6 4 4 3 6 9 10 10 9
18 18 18 18 18 18 19 19 19 19 20 25 33 28 15 7 16 27 27 21 19 20 20 37 37 39 27 3 4 8 7 6 9 12 7 5 5 5 3 6 8 7 5 11 6 5 7
17 17 17 17 17 18 19 21 21 21 23 24 31 34 23 11 32 33 20 23 39 29 16 17 26 18 38 8 7 4 5 6 8 14 7 5 3 8 3 3 6 6 5 17 8 7 8
18 18 17 17 17 18 19 21 21 23 22 24 29 33 34 17 36 44 49 41 34 28 15 21 17 8 11 12 6 4 4 6 5 7 12 7 7 4 3 3 7 12 3 11 6 8 17
18 19 18 18 18 18 20 21 22 23 22 22 26 27 32 33 36 31 37 43 33 30 30 14 16 14 9 5 4 4 5 4 7 8 4 6 7 7 10 7 5 10 7 11 25 28 26
Wind_Direction
256 259 268 261 259 257 260 263 264 267 268 279 291 300 308 315 321 325 326 327 332 337 340 340 342 344 346 327 291 319 306 319 317 326 333 356 349 358 352 322 335 218 327 337 88 123 109
252 256 262 269 272 264 260 262 264 264 266 270 281 291 300 305 311 313 315 319 324 329 334 333 336 339 336 309 231 298 320 310 318 307 308 356 343 324 294 296 293 312 302 305 126 138 142
250 249 252 258 270 274 269 264 263 264 265 269 274 281 290 298 305 306 307 312 317 321 322 323 324 328 311 276 284 252 276 287 299 281 271 273 311 319 321 306 296 296 297 312 276 159 132
250 250 248 249 253 260 269 270 270 265 266 269 271 274 281 290 301 304 308 311 315 320 315 311 309 313 284 308 265 247 251 260 277 271 271 286 285 294 263 278 315 322 7 18 286 152 186
253 252 251 251 251 251 254 262 269 270 267 268 272 274 275 280 291 299 308 311 312 315 318 299 301 304 280 283 298 276 257 254 262 264 253 273 274 278 275 120 352 317 247 217 295 196 149
261 255 255 256 255 255 254 255 256 265 269 266 270 273 274 279 288 297 301 311 316 319 310 310 272 277 265 269 299 283 211 229 250 258 215 228 227 334 3 88 231 235 311 266 240 221 75
270 265 258 256 259 255 254 255 257 259 265 266 264 267 271 275 281 298 309 334 353 300 318 278 279 271 279 277 285 280 265 251 248 247 203 227 133 221 232 209 240 277 283 261 264 225 114
274 273 269 264 259 258 258 257 257 258 261 267 266 264 267 271 278 289 311 326 304 325 302 288 276 270 265 264 281 270 255 267 205 213 194 294 217 236 244 247 230 278 263 264 290 164 83
274 275 273 272 269 268 267 265 262 258 261 261 265 264 263 266 274 285 299 303 306 323 288 293 262 253 252 232 246 253 256 240 216 219 213 218 232 236 232 256 244 245 231 226 219 314 52
271 272 274 274 275 274 270 269 271 270 259 259 261 262 261 259 273 284 296 303 306 316 308 281 237 252 235 228 260 244 242 236 222 219 213 242 237 242 268 264 196 238 230 259 276 153 213
269 271 270 270 273 273 273 273 270 269 267 258 258 256 254 243 229 227 284 281 234 224 302 246 234 191 203 166 195 240 230 229 229 223 159 227 210 214 238 230 232 233 245 240 254 196 334
265 267 267 268 269 271 274 273 276 276 273 268 255 254 243 235 233 241 233 290 252 95 245 282 222 186 125 202 249 333 170 216 237 224 235 232 265 231 226 254 215 234 222 313 8 137 226
261 262 264 268 270 271 271 273 275 276 279 278 269 248 244 232 241 225 247 280 225 206 284 241 230 181 177 164 221 180 223 190 186 188 229 248 246 260 248 274 296 174 85 305 308 276 244
262 261 261 264 267 271 273 274 276 276 279 280 273 263 243 241 237 217 240 212 234 214 230 345 339 205 190 168 207 195 201 239 229 206 174 218 256 196 238 199 209 217 168 166 212 230 267
260 259 260 261 264 266 268 270 274 275 273 276 277 271 256 233 239 213 226 221 225 228 210 230 330 262 240 210 174 205 212 227 227 183 204 197 234 247 246 240 169 239 157 197 184 236 123
258 258 257 258 260 261 262 263 267 271 274 278 275 284 263 241 238 229 234 228 230 236 246 212 220 201 210 205 177 176 197 214 225 220 203 222 254 221 254 241 256 219 209 160 354 218 252
256 257 255 256 260 262 261 261 264 268 271 279 289 293 284 248 241 241 229 222 216 252 226 206 227 247 223 194 187 191 216 252 203 217 219 200 207 246 213 206 243 171 194 167 169 155 196
253 255 253 254 257 261 261 261 261 262 269 266 274 252 299 250 204 233 232 224 219 228 233 250 259 232 227 191 191 191 216 208 253 213 192 204 182 202 229 220 223 234 212 195 144 228 154
250 252 250 251 255 257 257 258 257 258 258 251 248 253 263 240 234 232 249 234 222 217 219 230 223 217 206 215 207 210 204 194 213 200 171 162 219 133 328 309 4 330 242 161 132 130 200
246 247 248 248 251 252 252 251 258 259 244 233 235 249 248 216 227 241 242 228 233 218 221 224 231 237 228 243 257 242 216 208 211 201 151 124 158 165 205 208 155 230 348 347 163 142 189
244 245 245 245 245 247 246 243 250 248 237 226 223 219 232 239 220 228 237 254 218 214 210 214 225 231 217 220 221 229 213 280 264 191 167 149 186 178 199 162 162 183 182 111 169 133 205
242 245 245 245 244 241 239 239 251 237 224 235 221 205 240 256 255 274 228 232 218 210 194 207 209 214 227 233 219 203 168 200 209 208 189 176 207 124 249 199 210 228 194 156 292 132 238
242 242 244 244 243 244 237 245 254 239 230 239 235 251 253 255 251 261 238 230 224 204 214 207 207 204 203 228 221 226 209 208 205 189 201 162 142 118 223 181 172 270 217 170 173 43 189
237 240 241 242 243 243 241 248 256 243 240 247 245 236 249 272 252 250 256 236 212 213 209 200 204 197 215 243 236 232 238 206 193 264 178 155 144 143 172 105 223 231 199 207 204 210 189
236 238 241 243 243 244 245 248 259 250 251 247 250 238 227 260 261 293 226 236 225 218 217 213 211 212 204 200 125 125 195 202 219 232 249 173 134 136 148 207 293 265 213 200 183 226 188
236 240 242 245 245 247 247 250 253 255 258 250 250 233 243 268 247 263 253 221 214 214 222 227 221 212 198 141 155 184 201 173 163 172 216 104 112 141 144 166 214 216 231 173 101 239 192
238 242 245 247 248 249 252 253 253 258 253 255 254 250 238 254 264 270 270 224 212 218 220 199 192 194 195 196 195 151 204 184 165 167 160 129 76 174 145 201 283 246 245 161 151 233 183
242 245 248 251 251 250 252 254 258 264 262 254 251 244 244 259 270 271 270 240 202 215 203 201 179 189 180 182 188 186 175 200 128 167 173 153 145 173 101 107 264 205 153 174 191 132 160
248 248 250 253 254 252 252 254 256 264 274 261 251 244 257 250 264 276 284 226 229 201 220 199 184 177 170 156 185 170 217 151 144 181 178 187 174 167 182 197 206 200 149 156 149 146 148